Wind_Speed
27 27 27 27 28 28 28 29 29 29 30 31 31 31 32 32 33 33 33 34 34 34 35 35 35 36 36 37 37 37 38 38 39 39 40 41 41 42 42 43 43 44 44
28 28 28 28 29 29 29 30 30 31 31 32 33 33 33 33 34 34 34 34 35 35 35 36 36 37 38 38 39 39 39 40 40 41 41 41 42 42 43 44 44 45 45
30 30 30 30 30 31 31 31 32 32 33 33 34 34 34 34 35 35 35 35 35 36 36 37 37 38 39 40 40 40 40 41 41 42 42 43 43 44 44 45 46 46 46
31 31 31 31 31 32 32 33 33 34 34 34 35 35 35 36 35 35 36 36 36 36 37 38 38 39 39 40 40 41 41 42 42 43 43 44 45 45 46 46 47 48 48
32 32 32 32 33 33 34 34 34 35 35 35 35 36 37 37 36 36 37 37 38 38 38 39 39 40 40 40 41 41 42 42 43 44 44 45 45 46 47 47 48 49 49
33 33 33 34 34 34 34 35 35 35 36 36 36 37 37 37 37 38 38 38 39 39 39 39 40 40 41 41 42 42 43 44 44 45 45 46 47 47 48 49 49 50 50
33 34 34 34 34 35 35 35 36 36 37 37 37 37 38 38 39 39 39 39 40 40 41 41 41 41 42 42 43 43 44 45 46 46 47 47 48 49 49 50 51 52 52
34 35 35 35 35 35 35 36 37 37 37 37 38 38 38 39 39 40 40 41 41 42 42 42 42 43 43 44 44 45 45 46 47 47 48 49 50 50 51 52 52 53 54
35 35 35 35 35 36 36 37 37 37 38 38 39 40 39 39 39 40 41 42 43 43 43 43 44 44 45 45 45 45 46 47 48 48 49 50 51 52 52 53 54 55 56
35 35 35 35 35 36 37 37 38 38 39 39 40 40 41 41 41 41 42 43 43 44 44 45 46 46 46 46 46 47 47 48 48 49 50 51 52 53 54 55 56 57 58
35 36 36 36 36 37 37 38 39 39 40 40 41 41 41 42 43 42 42 43 44 45 45 46 47 47 47 47 48 48 49 49 50 50 51 52 52 54 55 56 57 58 59
36 36 36 36 37 37 38 39 40 40 41 41 42 42 43 43 43 44 43 43 44 45 45 46 47 47 48 48 49 49 50 50 51 52 53 54 55 56 57 58 60 61 62
36 37 37 37 37 38 39 39 40 41 42 42 43 44 44 44 45 45 45 45 44 44 44 46 47 47 48 48 49 50 51 52 53 54 55 56 57 59 60 62 63 64 65
37 37 37 37 38 38 39 40 41 42 43 43 44 44 44 45 45 46 46 46 45 44 45 46 47 48 48 49 50 51 52 53 54 56 57 59 61 62 64 65 66 67 67
37 37 38 38 38 39 40 41 42 43 44 44 44 45 45 46 46 46 47 47 47 46 45 46 48 48 49 50 51 52 54 55 56 58 60 62 64 66 67 68 69 70 71
37 38 38 38 39 40 40 41 42 44 44 44 45 46 46 46 47 47 47 48 48 48 47 47 49 49 50 51 53 55 56 58 60 62 65 67 68 70 71 71 72 73 74
37 37 38 39 40 40 41 42 43 44 44 45 46 46 47 47 47 48 48 49 49 49 49 49 50 51 53 54 56 58 60 62 65 67 69 71 72 73 74 75 76 77 78
37 38 39 39 40 41 42 43 44 44 45 46 47 47 48 48 48 49 50 50 51 51 51 51 52 54 56 58 60 62 64 66 69 70 72 74 75 76 77 78 78 78 78
39 39 39 40 41 42 43 43 44 45 46 47 48 48 49 49 50 50 51 52 52 53 54 54 55 57 59 62 64 66 68 70 71 73 75 76 77 77 77 77 76 75 74
39 39 40 41 42 43 43 44 45 46 47 48 49 49 50 51 51 52 52 53 54 55 56 57 58 60 63 66 68 69 70 72 73 75 76 76 76 75 74 73 71 69 66
39 39 40 41 42 43 45 46 46 47 48 49 49 50 51 52 53 54 54 55 57 58 59 61 62 65 67 69 71 72 73 73 73 74 74 73 72 70 69 67 64 61 59
39 41 42 43 43 44 46 46 47 48 49 50 51 52 53 54 55 56 57 58 59 60 62 65 67 68 70 71 72 73 74 73 71 72 72 69 68 65 62 59 57 54 52
40 41 42 43 44 46 46 47 48 49 50 51 52 53 54 55 56 57 59 60 61 63 66 68 69 70 71 71 72 71 71 72 72 71 70 65 61 58 55 52 51 48 46
40 42 43 44 46 46 47 48 49 50 51 52 53 54 55 57 58 60 60 61 63 65 68 69 70 70 70 70 70 71 72 72 70 68 66 60 55 52 49 48 47 44 41
41 42 44 45 46 46 48 50 51 51 52 53 54 55 57 58 60 61 63 64 65 66 68 69 69 69 69 69 70 72 72 71 67 62 59 56 51 48 45 44 41 39 35
42 43 44 45 46 47 49 50 51 52 53 54 55 57 59 60 62 63 65 66 66 67 67 68 68 68 68 69 71 71 70 67 64 58 53 51 48 45 39 37 35 33 30
Wind_Direction
289 289 289 289 289 289 289 290 291 291 292 293 293 293 293 294 295 295 295 294 293 293 292 292 291 290 289 288 287 286 284 283 282 281 280 279 278 277 276 275 273 272 271
288 288 287 287 287 288 289 289 290 290 291 292 293 294 294 295 295 296 295 294 293 293 292 291 291 290 289 288 287 285 284 283 282 281 280 279 278 277 276 275 274 273 272
287 287 287 286 286 287 288 289 289 290 291 292 293 294 295 296 297 296 296 295 294 293 292 292 291 290 289 288 287 285 284 283 282 281 280 279 278 278 277 276 275 274 273
286 285 285 285 286 287 288 289 290 291 292 293 294 295 296 296 297 297 296 295 294 293 293 292 292 291 289 288 287 286 285 284 283 282 281 280 279 278 278 277 276 275 273
284 283 283 284 285 286 287 289 290 291 292 293 294 295 296 296 296 297 296 295 294 294 293 292 292 291 290 289 287 286 285 284 283 283 282 281 280 279 278 277 276 275 274
284 282 282 283 284 285 287 289 290 291 293 294 295 296 297 297 297 297 297 296 295 294 294 293 293 292 291 290 289 288 287 286 285 284 283 282 281 280 279 278 277 276 275
282 281 282 283 284 285 287 289 291 292 293 294 295 296 297 297 298 298 298 297 296 296 295 295 294 293 292 291 290 289 288 287 286 285 284 283 282 281 280 279 278 277 276
281 281 282 284 285 286 287 289 291 292 293 294 295 296 297 298 298 298 298 298 297 297 297 296 295 294 294 293 292 291 290 289 288 287 285 284 283 282 281 280 279 278 277
281 281 282 284 285 287 288 289 291 293 293 295 296 297 297 298 298 298 298 298 298 298 297 297 296 295 295 294 293 292 291 290 289 288 287 286 285 283 282 281 280 279 278
280 281 282 283 285 287 288 290 291 292 294 295 297 298 298 298 298 298 298 298 298 298 298 298 297 297 296 295 294 293 293 292 291 290 289 288 287 285 284 283 282 281 280
279 280 282 284 285 286 288 290 291 293 295 296 297 298 299 299 299 299 299 299 299 299 299 298 298 297 297 297 296 295 294 294 293 292 291 290 289 288 286 285 284 283 282
279 280 281 283 284 286 288 290 291 293 295 296 297 298 298 299 299 299 299 299 299 299 299 298 298 298 297 297 297 296 296 295 294 293 292 291 290 289 288 287 286 285 283
278 279 281 282 284 285 288 290 291 293 295 296 298 299 299 299 299 300 300 300 299 299 299 299 298 298 298 297 297 297 296 295 295 294 293 292 292 291 290 289 287 286 285
277 278 280 281 283 285 288 290 292 294 295 297 299 299 299 300 300 301 301 300 300 299 299 299 299 298 298 297 297 296 296 296 295 294 294 294 293 292 291 290 288 286 285
276 277 279 281 283 287 289 290 292 294 296 298 299 299 300 301 301 301 301 301 301 300 300 300 300 299 299 299 298 297 297 297 296 296 295 295 294 293 292 290 288 287 285
275 277 280 282 284 287 289 291 293 295 296 298 299 300 300 301 301 301 302 302 302 301 301 301 301 301 300 299 299 299 298 298 298 297 297 296 295 293 292 290 288 287 285
276 278 280 282 285 287 289 292 294 296 297 298 299 300 301 301 302 302 302 302 302 302 302 302 302 301 301 300 300 300 300 300 300 299 298 297 296 295 293 292 290 289 287
276 279 280 283 286 288 290 292 294 296 298 299 299 300 301 301 302 302 303 303 302 302 303 303 302 302 302 302 302 302 302 301 300 300 299 299 298 296 295 293 292 290 289
277 279 282 284 286 288 290 292 294 296 298 298 299 300 301 302 302 303 303 303 303 303 303 303 303 303 303 303 303 303 303 302 301 301 301 300 298 297 296 295 293 292 291
277 280 282 284 287 289 291 294 296 297 297 298 299 300 301 302 302 303 303 303 303 304 304 304 304 304 304 304 304 303 303 303 303 302 302 301 300 299 298 297 295 294 293
278 281 283 285 288 290 293 295 296 296 297 298 299 300 301 302 302 303 303 304 304 304 304 305 305 305 305 305 305 305 304 304 305 304 304 303 302 301 299 298 296 295 294
278 281 284 287 289 291 293 295 296 296 297 298 299 300 301 301 302 303 304 304 305 305 305 306 306 306 307 306 306 306 306 306 307 306 306 305 303 302 300 299 298 297 296
281 284 286 287 290 291 293 294 295 296 297 298 300 301 301 302 302 303 304 305 306 306 306 307 307 308 308 307 308 308 308 309 310 309 307 306 304 303 301 300 299 298 297
283 285 286 288 290 291 292 293 295 295 297 298 300 301 301 302 303 303 304 305 306 306 306 307 308 309 309 309 309 310 310 311 311 310 308 307 305 304 302 301 300 299 298
283 285 287 289 290 292 293 294 295 295 297 299 300 301 302 302 303 303 304 305 306 306 307 308 309 309 310 310 310 311 312 312 312 310 308 307 306 305 304 302 300 299 298
284 286 288 290 291 292 293 294 295 296 298 299 300 301 302 303 303 304 305 306 306 307 307 308 309 309 310 310 311 312 312 312 312 311 308 307 307 306 304 302 300 299 298
Height
5835 5834 5833 5832 5830 5829 5828 5827 5825 5824 5822 5821 5819 5817 5815 5813 5811 5809 5807 5805 5802 5800 5798 5796 5794 5792 5790 5788 5786 5784 5782 5780 5779 5777 5776 5775 5774 5772 5772 5771 5770 5769 5769
5829 5828 5827 5826 5825 5823 5822 5821 5820 5818 5817 5815 5813 5811 5809 5807 5805 5803 5801 5798 5795 5793 5791 5788 5786 5784 5781 5779 5777 5775 5773 5771 5770 5768 5767 5765 5764 5763 5762 5761 5760 5759 5758
5823 5822 5821 5820 5819 5817 5816 5814 5813 5812 5810 5808 5807 5805 5802 5800 5798 5796 5793 5791 5788 5786 5783 5780 5778 5775 5773 5771 5768 5766 5764 5762 5760 5758 5757 5755 5754 5753 5751 5750 5749 5748 5747
5817 5816 5815 5813 5812 5811 5809 5808 5807 5805 5803 5802 5800 5798 5795 5793 5790 5788 5786 5783 5781 5778 5775 5772 5770 5767 5764 5762 5759 5757 5755 5752 5750 5749 5747 5745 5743 5742 5741 5739 5738 5737 5736
5810 5809 5808 5807 5805 5804 5803 5801 5800 5798 5796 5795 5792 5790 5788 5786 5783 5780 5778 5775 5772 5770 5767 5764 5761 5758 5755 5752 5750 5747 5745 5742 5740 5738 5736 5734 5732 5731 5729 5728 5726 5725 5724
5803 5802 5801 5800 5799 5797 5796 5794 5793 5791 5789 5787 5785 5783 5780 5778 5775 5772 5769 5767 5764 5761 5758 5755 5752 5749 5746 5743 5740 5737 5734 5732 5730 5727 5725 5723 5721 5719 5717 5716 5714 5713 5712
5796 5795 5794 5793 5791 5790 5788 5787 5785 5784 5782 5779 5778 5775 5772 5770 5767 5764 5760 5758 5755 5752 5748 5745 5742 5739 5736 5733 5730 5726 5723 5721 5718 5716 5714 5711 5709 5707 5705 5703 5701 5700 5698
5789 5788 5786 5785 5784 5783 5781 5779 5778 5776 5774 5771 5769 5767 5765 5762 5758 5755 5751 5748 5745 5742 5739 5735 5732 5729 5726 5722 5719 5716 5713 5709 5707 5704 5701 5699 5696 5694 5692 5690 5688 5686 5684
5781 5780 5779 5778 5776 5775 5773 5772 5770 5768 5765 5763 5761 5758 5756 5753 5750 5747 5742 5739 5735 5732 5728 5725 5721 5718 5715 5711 5708 5704 5701 5698 5695 5691 5688 5686 5683 5680 5678 5675 5673 5671 5669
5773 5772 5771 5770 5769 5767 5765 5763 5761 5759 5757 5754 5752 5749 5746 5743 5741 5738 5734 5729 5726 5722 5718 5714 5711 5707 5703 5700 5696 5693 5689 5686 5682 5679 5675 5672 5669 5666 5663 5660 5658 5655 5653
5765 5764 5763 5762 5760 5759 5757 5755 5753 5751 5748 5746 5743 5740 5737 5733 5730 5727 5724 5720 5716 5712 5708 5703 5699 5696 5692 5688 5684 5680 5677 5673 5669 5666 5662 5658 5655 5652 5648 5645 5642 5639 5636
5757 5756 5755 5753 5752 5750 5748 5746 5744 5742 5739 5736 5733 5730 5727 5724 5720 5717 5714 5710 5707 5702 5697 5693 5689 5684 5680 5676 5672 5668 5664 5660 5656 5652 5648 5644 5640 5636 5633 5629 5625 5622 5619
5749 5748 5746 5745 5743 5742 5740 5738 5735 5733 5730 5727 5724 5720 5717 5713 5710 5706 5703 5700 5696 5692 5687 5682 5678 5673 5669 5665 5660 5656 5651 5647 5643 5638 5634 5629 5625 5621 5616 5612 5607 5603 5599
5740 5739 5738 5736 5735 5733 5731 5729 5726 5723 5720 5717 5714 5710 5707 5703 5699 5695 5691 5688 5685 5682 5677 5672 5667 5662 5658 5653 5648 5644 5639 5634 5629 5624 5619 5614 5609 5603 5598 5593 5588 5583 5579
5731 5730 5729 5727 5726 5724 5722 5719 5717 5714 5711 5707 5704 5700 5696 5692 5688 5684 5680 5676 5673 5670 5667 5661 5655 5650 5645 5640 5635 5631 5626 5620 5614 5609 5603 5597 5591 5585 5579 5573 5568 5563 5558
5722 5721 5720 5719 5717 5715 5713 5710 5707 5704 5701 5697 5694 5690 5686 5682 5677 5673 5669 5664 5660 5657 5654 5649 5643 5638 5633 5627 5622 5617 5611 5605 5599 5592 5585 5578 5572 5565 5558 5552 5546 5540 5534
5714 5712 5711 5709 5708 5705 5703 5700 5697 5694 5691 5687 5683 5679 5675 5671 5666 5662 5657 5653 5648 5644 5640 5637 5630 5625 5619 5614 5608 5602 5595 5589 5582 5574 5566 5558 5551 5543 5536 5528 5522 5515 5509
5704 5703 5702 5700 5698 5696 5693 5690 5687 5684 5680 5677 5672 5668 5664 5659 5655 5650 5645 5641 5636 5631 5627 5623 5618 5611 5605 5599 5593 5586 5579 5571 5563 5555 5546 5537 5528 5520 5511 5503 5496 5489 5483
5695 5694 5692 5690 5688 5686 5683 5680 5677 5673 5670 5666 5661 5657 5653 5648 5643 5638 5633 5628 5623 5618 5612 5608 5604 5597 5590 5582 5576 5569 5561 5552 5543 5534 5525 5516 5506 5497 5487 5479 5471 5464 5458
5686 5684 5682 5680 5678 5675 5673 5670 5666 5663 5659 5655 5650 5646 5641 5636 5631 5626 5621 5615 5610 5604 5598 5592 5587 5581 5574 5566 5557 5550 5544 5534 5525 5514 5504 5493 5484 5474 5464 5455 5448 5441 5435
5676 5674 5672 5670 5668 5665 5662 5659 5655 5652 5648 5643 5639 5634 5629 5624 5619 5613 5608 5602 5596 5590 5584 5577 5571 5565 5557 5548 5539 5530 5523 5515 5506 5493 5484 5474 5463 5454 5444 5435 5427 5421 5415
5666 5664 5663 5660 5657 5654 5651 5648 5644 5640 5636 5632 5627 5622 5617 5612 5606 5600 5594 5588 5581 5574 5568 5561 5554 5547 5538 5529 5520 5510 5501 5494 5487 5476 5463 5455 5443 5434 5425 5417 5410 5404 5398
5656 5654 5652 5649 5647 5643 5640 5636 5633 5629 5625 5620 5615 5610 5605 5599 5593 5587 5581 5574 5567 5558 5551 5544 5536 5528 5519 5511 5501 5493 5482 5472 5464 5453 5442 5436 5426 5417 5409 5402 5395 5389 5384
5646 5644 5641 5639 5635 5632 5628 5625 5621 5617 5613 5608 5603 5597 5592 5586 5579 5573 5567 5560 5553 5544 5535 5527 5519 5511 5501 5491 5481 5472 5463 5455 5446 5434 5422 5416 5410 5403 5396 5388 5381 5376 5372
5635 5633 5630 5627 5624 5621 5617 5613 5609 5605 5600 5596 5590 5584 5578 5572 5565 5558 5552 5546 5538 5529 5519 5510 5502 5493 5483 5474 5463 5454 5445 5435 5429 5420 5407 5399 5394 5389 5384 5376 5369 5364 5361
5624 5622 5619 5616 5613 5609 5605 5601 5596 5592 5588 5583 5577 5571 5564 5557 5550 5542 5535 5528 5521 5513 5504 5496 5486 5477 5467 5458 5447 5437 5427 5418 5410 5404 5395 5387 5381 5374 5372 5367 5360 5356 5352